Location: Iowa City
(41.6610°N, 91.5300°W)
Time: 17:20:23
(UTC-05:00)

ISS - Visible Passes

Search period start: 25 September 2017 00:00
Search period end: 05 October 2017 00:00
Orbit: 401 x 407 km, 51.6° (Epoch: 26 September)

Date Brightness Start Highest point End Pass type
(mag) Time Alt. Az. Time Alt. Az. Time Alt. Az.
25 Sep -3.9 20:26:53 10° SW 20:30:06 64° SE 20:30:16 62° ESE visible
26 Sep -3.0 19:34:53 10° SSW 19:37:51 32° SE 19:40:35 11° ENE visible
26 Sep -1.6 21:11:16 10° W 21:13:16 27° WNW 21:13:16 27° WNW visible
27 Sep -3.2 20:18:38 10° WSW 20:21:51 55° NNW 20:23:21 27° NE visible
28 Sep -3.9 19:26:11 10° SW 19:29:27 81° SE 19:32:44 10° ENE visible
28 Sep -1.5 21:03:38 10° WNW 21:05:59 21° NNW 21:05:59 21° NNW visible
29 Sep -2.1 20:10:45 10° W 20:13:40 29° NNW 20:15:49 15° NNE visible
30 Sep -2.9 19:17:59 10° WSW 19:21:09 46° NNW 19:24:20 10° NE visible
30 Sep -1.2 20:56:04 10° NW 20:58:11 16° NNW 20:58:11 16° NNW visible
01 Oct -1.5 20:03:05 10° WNW 20:05:35 20° NNW 20:07:50 11° NNE visible
02 Oct -2.0 19:10:07 10° W 19:12:56 26° NNW 19:15:46 10° NE visible
02 Oct -1.2 20:48:20 10° NW 20:50:04 14° N 20:50:04 14° N visible
03 Oct -1.3 19:55:26 10° NW 19:57:30 15° N 19:59:35 10° NNE visible
04 Oct -1.3 20:40:12 10° NNW 20:41:47 15° N 20:41:47 15° N visible
